DECAYED

STARLINK-2617, 48689 (Decayed)

Orbit data source: Space-Track

STARLINK-2617, 48689 was a payload satellite owned by SpaceX/Seattle (US) in LEO that was launched on Wed, 26 May 2021 UTC via an FALCON 9 launch vehicle from the Air Force Eastern Test Range (AFETR). Payload-class satellites include a variety of spacecraft equipped with specific instruments for various scientific and technological missions. These include communications satellites like Starlink; space stations such as the ISS; scientific satellites like the Hubble; Earth observation satellites from companies like Planet Labs, Umbra, and HawkEye 360; GPS; miniature CubeSats for education and research; and military/defense satellites.

Not visible in the next 10 days
Identifier
48689, 2021-044BD
Orbit
Decayed
Country
Flag of USUS
Related business
Manufacturer
SpaceX/Seattle
Mission
Decayed Commercial Communications
Bus & Motor
STARLINK, Unknown motor
Mass
260 kg wet, ~248 kg dry
Launch date (UTC)
2021-05-26 (5 years ago)
Launch vehicle
FALCON 9
Launch site
Air Force Eastern Test Range (AFETR)
Object type
Payload
Rocket body
Debris
Shape & HBR
Box + 1 Pan, 10.1 m
Radar Cross Section
13.562 m², Large (>1 m²)

Expand to show TLE details & history
Last TLE update: 11 months ago

TLE from 11 months ago
0 STARLINK-2617
1 48689U 21044BD  25011.91481803  .06247023  12297-4  81947-3 0  9990
2 48689  53.0328 142.4220 0008336 322.3230 133.3944 16.34740949201982
Epoch: 2025-01-11T21:57Z
TLE epoch observation values (Epoch: 2025-01-11T21:57:20.277Z)
Latitude
52.8046°
Longitude
161.00658°
Altitude
189.982 km
Speed
7.797 km/s
True Right ascension
16h 07m 59s
True Declination
52° 37' 28"
Sunlit
Object was in daylight at epoch
Visualization orbit readout
Latitude
Unknown
Longitude
Unknown
Altitude
Unknown
Speed
Unknown
Apparent Right ascension
Unknown
Apparent Declination
Unknown
Sunlit
N/A
Visualization observer readout
Local Sidereal Time
19:05:33
Azimuth
Unknown
Elevation
Unknown
Doppler factor
Unknown
Orbital elements
Apogee altitude
185.586 km
Perigee altitude
174.652 km
Semi-major axis
6,558.256 km
Eccentricity
0.00083
Inclination
53.0328°
RAAN
142.422°
Arg. of periapsis
322.323°
True anomaly
133.46376°
Mean anomaly
133.3944°
Eccentric anomaly
133.42909°
Mean motion
4.08659 °/min
Orbital period
88.09 mins
BSTAR
0.00081947
Loading maneuver chart data...
Computing Atmospheric mass density...
Loading historical data...
Loading historical data...
Loading historical data...
Loading historical data...
Loading historical data...
Loading historical data...
Loading historical data...

Documentation

Showing up to 5 results
|